Simultaneous Nadir Overpasses (SNOs) Predictions

Prediction of SNOs between AQUA and NPP Satellite Orbit:

Table of predicted SNOs for the next 14.0 days since TLE Epoch: 8/26/2017
Index Date (AQUA) Time (AQUA) Lat,Lon (AQUA) SZA (AQUA ) Date (NPP) Time (NPP) Lat,Lon (NPP) SZA (NPP ) Distance(km) Time Diff (sec)
1 08/28/2017 13:16:02 74.07,-145.01 90.13 08/28/2017 13:14:49 74.08,-144.95 90.17 2.15 73
2 08/28/2017 14:05:09 -75.11, 25.19 91.02 08/28/2017 14:05:14 -75.10, 25.11 91.00 2.63 5
3 08/31/2017 05:32:29 74.15, -28.95 90.93 08/31/2017 05:31:44 74.14, -29.03 90.99 2.78 45
4 08/31/2017 06:21:28 -75.59, 142.39 90.66 08/31/2017 06:22:00 -75.58, 142.34 90.68 1.43 32
5 09/02/2017 21:48:47 74.74, 88.35 91.18 09/02/2017 21:48:29 74.74, 88.30 91.21 1.63 18
6 09/02/2017 22:37:47 -76.10,-100.19 90.34 09/02/2017 22:38:46 -76.10,-100.19 90.40 0.21 59
7 09/05/2017 13:16:02 -74.16, 35.19 87.28 09/05/2017 13:14:54 -74.17, 35.26 87.24 2.29 68
8 09/05/2017 14:05:05 75.32,-154.26 91.46 09/05/2017 14:05:14 75.32,-154.26 91.45 0.15 9
9 09/08/2017 05:32:29 -74.28, 151.34 86.49 09/08/2017 05:31:49 -74.28, 151.29 86.44 1.74 40




NCC Satellite Simultaneous Nadir Overpasses (SNOs) Prediction Service
